www.pogodaiklimat.ru

Погода и климат >> Архив погоды >> Россия >> Ямало-Ненецкий АО >> Новый Порт


АРХИВ ПОГОДЫ в Новом Порте

Время (UTC), дата Ветер
(напр.,м/с)
 
Видим.   Явления Облачность Т
(С)
Тd
(С)
f
(%)
Тe
(С)
Тes
(С)
Комфортность P
(гПа)
Po
(гПа)
Тmin
(С)
Tmax
(С)
R
(мм)
R24
(мм)
S
(см)
12 18.03 ЮЗ 4 10 км 8/0
[Ac trans Ci fib]
-10.4 -12.4 85 -17 -17 1021.5 1019.9
15 18.03 ЮЗ 3 10 км 9/0
[Ac trans Ci fib]
-12.2 -14.2 85 -18 -18 1021.3 1019.7 -9.0
18 18.03 ЮЗ 2 10 км 9/0
[Ac trans]
-16.0 -18.7 80 -21 -21 1021.1 1019.4
00 19.03 штиль 0 10 км 8/0
[Ac trans]
-13.3 -16.0 80 -13 -13 1021.9 1020.2
03 19.03 ЮЗ 3 10 км 10/0
[Ac und]
-11.4 -13.4 85 -17 -17 1022.3 1020.7 -16.3 61
06 19.03 ЮЗ 3 10 км 6/0
[Ac trans Ci fib]
-10.8 -12.8 85 -17 -15 1022.1 1020.5
12 19.03 З 4 10 км 10/0
[Ac und]
-10.2 -12.2 85 -17 -17 1022.2 1020.6
15 19.03 З 4 10 км 10/0
[Ac und]
-7.0 -8.3 90 -14 -14 1021.6 1020.0 -7.0
18 19.03 ЮЗ 4 10 км 10/0
[Ac und]
-5.9 -7.0 92 -13 -13 1020.7 1019.1
00 20.03 ЮЗ 4 10 км 10/0
[Ac und]
-8.3 -10.2 86 -15 -15 1016.8 1015.2
03 20.03 Ю 4 10 км 10/6 360 м
[Sc Ac und]
-4.5 -6.1 89 -11 -11 1014.3 1012.7 -8.3 61
06 20.03 Ю 6 4000 м слаб. ливневой снег {метель} 10/10 210 м
[Cb cap]
-3.6 -5.4 87 -11 -11 1012.0 1010.4
12 20.03 Ю 6 1000 м ливневой снег {метель} 10/10 180 м
[Cb cap]
-1.9 -3.0 92 -9 -9 1006.3 1004.8
15 20.03 ЮЗ 5 4000 м слаб. ливневой снег {метель} 10/10 240 м
[Cb cap]
-1.7 -2.8 92 -8 -8 1004.6 1003.1 -1.6 2
18 20.03 З 6 10 км позёмок {ливн. осадки} 9/9 330 м
[Cu hum]
-2.2 -4.0 87 -9 -9 1003.9 1002.4
00 21.03 З 2 500 м туман ?/? -1.8 -2.6 94 -6 -6 1004.4 1002.9
03 21.03 З 3 500 м туман ?/? -2.0 -2.6 96 -7 -7 1004.1 1002.6 -2.2 0.0 61
06 21.03 ЮЗ 3 4000 м слаб. ливневой снег {туман} 10/10 150 м
[Cb cap]
-1.9 -2.7 94 -7 -7 1003.8 1002.3
12 21.03 З 3 10 км {ливн. осадки} 8/0
[Ac trans Ci fib]
-8.0 -10.2 84 -14 -14 1004.7 1003.1
15 21.03 ЮЗ 3 10 км 10/0
[Ac und]
-3.0 -4.7 88 -8 -8 1005.1 1003.5 -1.7 0.2
18 21.03 З 3 10 км 5/0
[Ac trans]
-9.1 -11.1 85 -15 -15 1004.8 1003.2
03 22.03 З 3 4000 м слаб. ливневой снег {туман} 10/8 300 м
[Cb cap Ac und]
-6.9 -8.5 88 -13 -13 1006.4 1004.8 -11.2 0.0 61
06 22.03 СЗ 5 10 км позёмок {ливн. осадки, туман} 9/4 300 м
[Cu hum Ac trans Ci fib]
-6.0 -7.5 89 -13 -13 1007.6 1006.0
12 22.03 СЗ 5 4000 м позёмок 8/0
[Ac trans Ci fib]
-7.5 -8.8 90 -15 -15 1011.0 1009.4
15 22.03 СЗ 4 4000 м дымка 8/0
[Ac trans Ci fib]
-11.6 -12.9 90 -19 -19 1012.2 1010.6 -5.3 0.2
18 22.03 СЗ 3 4000 м дымка 8/0
[Ac trans Ci fib]
-13.4 -14.7 90 -20 -20 1013.0 1011.4
00 23.03 штиль 0 4000 м дымка 6/0
[Ac trans]
-15.3 -16.6 90 -15 -15 1013.6 1012.0
03 23.03 Ю 1 500 м переохл. туман ?/? -12.8 -13.4 95 -15 -15 1013.2 1011.6 -15.3 61
06 23.03 Ю 2 4000 м слаб. ливневой снег {туман} 10/8 240 м
[Cb cap Ac und]
-9.6 -10.8 91 -14 -14 1012.2 1010.6
12 23.03 З 2 500 м туман {ливн. осадки} ?/? -7.0 -7.9 93 -12 -12 1011.9 1010.3
15 23.03 З 3 4000 м слаб. ливневой снег {туман} 10/10 270 м
[Cb cap]
-7.2 -8.9 88 -13 -13 1012.3 1010.7 -4.4 0.3
18 23.03 СЗ 2 10 км {ливн. осадки, туман} 6/0
[Ac trans]
-10.8 -12.8 85 -15 -15 1012.6 1011.0
00 24.03 СЗ 2 500 м переохл. туман ?/? -19.5 -20.7 90 -25 -25 1014.5 1012.8
03 24.03 ЮЗ 3 500 м переохл. туман ?/? -15.8 -17.1 90 -23 -23 1014.2 1012.6 -19.8 0.0 61
06 24.03 ЮЗ 3 4000 м дымка {туман} 10/10 150 м
[St]
-14.0 -15.3 90 -20 -20 1013.8 1012.2
12 24.03 Ю 5 10 км позёмок 10/0
[Ac und]
-11.7 -13.7 85 -20 -20 1011.8 1010.2
15 24.03 Ю 6 10 км позёмок 10/0
[Ac und]
-6.8 -8.4 88 -15 -15 1010.0 1008.4 -6.8
18 24.03 Ю 6 10 км позёмок 10/0
[Ac und]
-6.2 -7.4 91 -14 -14 1008.3 1006.7
00 25.03 ЮЗ 6 10 км позёмок 10/0
[Ac und]
-4.0 -5.2 91 -12 -12 1008.3 1006.7
03 25.03 ЮЗ 6 10 км позёмок 10/0
[Ac und]
-5.9 -7.4 89 -14 -14 1009.3 1007.7 -6.8 61
06 25.03 ЮЗ 5 10 км позёмок 9/0
[Ac trans]
-2.9 -4.6 88 -10 -9 1010.3 1008.7

 

Местоположение метеостанции Новый Порт (Ямало-Ненецкий АО, Россия): широта 67.68 долгота 72.88 высота над уровнем моря 12 м.

В архиве по умолчанию представлена погода в Новом Порте за последнюю неделю. Архивные данные за месяц целиком и за предыдущие месяцы, начиная с января 2011 года, Вы можете получить, выбрав интересующий диапазон дат из раскрывающегося списка и нажав кнопку "Ввод!".


*Определитесь, кто Вы:
робот инопланетянин человек

Внимание! Время в таблицах - всемирное. Для получения местного времени необходимо прибавить поправку, которая равна 5 ч.

Смотрите также архив погоды в соседних городах и на ближайших метеорологических станциях:

Погода в Ныде (Ямало-Ненецкий АО, Россия) (117 км)
Погода в Пангодах (Ямало-Ненецкий АО, Россия) (218 км)
Погода в Белоярске (Ямало-Ненецкий АО, Россия) (223 км)
Погода в Антипаюте (Ямало-Ненецкий АО, Россия) (225 км)
Погода в Новом Уренгое (Ямало-Ненецкий АО, Россия) (245 км)
Погода в Надыме (Ямало-Ненецкий АО, Россия) (246 км)
Погода в Тазовском (Ямало-Ненецкий АО, Россия) (249 км)
Погода в Полуе (Ямало-Ненецкий АО, Россия) (260 км)
Погода в Сеяхе (Ямало-Ненецкий АО, Россия) (277 км)
Погода в Салехарде (Ямало-Ненецкий АО, Россия) (297 км)

Пояснения к столбцам:

Ветер - указаны скорость ветра в м/с - средняя за 10 мин, порывы в срок и между сроками (в фигурных скобках) и направление, откуда дует ветер: С - северный, СВ - северо-восточный, В - восточный, ЮВ - юго-восточный, Ю - южный, ЮЗ - юго-западный, З - западный, СЗ - северо-западный.
Видимость - горизонтальная дальность видимости в метрах или километрах. При видимости от 1 до 10 км при отсутствии осадков обычно наблюдается дымка, при ухудшении видимости до 1 км и менее - туман. В сухую погоду видимость может ухудшаться дымом, пылью или мглою.
Явления - указаны атмосферные явления, наблюдавшиеся в срок или в последний час перед сроком; фигурными скобками обозначены явления, наблюдавшиеся между сроками (за 1-3 часа до срока); квадратными скобками обозначены град или гололедные отложения с указанием их диаметра в мм.
Облачность - указаны через наклонную черту общая и нижняя облачность в баллах и высота нижней границы облаков в метрах; квадратными скобками обозначены формы облаков: Ci - перистые, Cs - перисто-слоистые, Cc - перисто-кучевые, Ac - высококучевые, As - высокослоистые, Sc - слоисто-кучевые, Ns - слоисто-дождевые, Cu - кучевые, Cb - кучево-дождевые. Подробнее классификацию облаков см. в Атласе облаков (PDF).
T - Температура воздуха - температура, измеренная на высоте 2 м над землей.
Td - Температура точки росы - температура, при понижении до которой содержащийся в воздухе водяной пар достигнет насыщения.
f - Относительная влажность воздуха - влажноcть воздуха, измеренная на высоте 2 м над землей.
Te - Эффективная температура - температура, которую ощущает одетый по сезону человек в тени. Характеристика душности погоды. При расчете учитывается влияние влажности воздуха и скорости ветра на теплоощущения человека.
Tes - Эффективная температура на солнце - температура, которую ощущает человек, с поправкой на солнечный нагрев. Характеристика знойности погоды. Зависит от высоты солнца над горизонтом, облачности и скорости ветра. Ночью, в пасмурную погоду, а также при ветре 12 м/с и более поправка равна нулю.
P - Атмосферное давление - приведенное к уровню моря атмосферное давление.
Po - Атмосферное давление - измеренное на уровне метеостанции атмосферное давление.
Tmin - Минимальная температура - минимум температуры воздуха на высоте 2 м над землей.
Tmax - Максимальная температура - максимум температуры воздуха на высоте 2 м над землей.
R - Количество осадков - Количество выпавших осадков за период времени, мм. При наведении курсора мыши на число - период времени, за который выпало указанное количество осадков.
R24 - Количество осадков - Количество выпавших осадков за 24 часа, мм.
S - Снежный покров - Высота снежного покрова, см. При наведении курсора мыши на число - состояние снежного покрова и степень покрытия местности в баллах.